Time,TemperatureF,DewpointF,PressureIn,WindDirection,WindDirectionDegrees,WindSpeedMPH,WindSpeedGustMPH,Humidity,HourlyPrecipIn,Conditions,Clouds,dailyrainin,SolarRadiationWatts/m^2,SoftwareType,DateUTC
2013-04-22 00:01:00,39.5,35.4,30.04,NE,44,8.0,11.0,85,0.00,,,0.03,0,Wunderground v.1.15,2013-04-22 05:01:00,
2013-04-22 00:06:00,39.5,35.4,30.05,NNE,25,9.0,12.0,85,0.00,,,0.00,0,Wunderground v.1.15,2013-04-22 05:06:00,
2013-04-22 00:11:00,39.5,35.4,30.04,NNE,30,8.0,8.0,85,0.00,,,0.00,0,Wunderground v.1.15,2013-04-22 05:11:00,
2013-04-22 00:16:00,39.6,35.8,30.04,NE,49,9.0,13.0,86,0.00,,,0.00,0,Wunderground v.1.15,2013-04-22 05:16:00,
2013-04-22 00:21:00,39.6,35.8,30.03,NE,37,10.0,12.0,86,0.00,,,0.00,0,Wunderground v.1.15,2013-04-22 05:21:00,
2013-04-22 00:26:00,39.6,35.8,30.03,NNE,19,12.0,14.0,86,0.00,,,0.00,0,Wunderground v.1.15,2013-04-22 05:26:00,
2013-04-22 00:31:00,39.6,35.8,30.02,ENE,59,7.0,12.0,86,0.00,,,0.00,0,Wunderground v.1.15,2013-04-22 05:31:00,
2013-04-22 00:36:00,39.6,35.8,30.02,NE,56,12.0,12.0,86,0.00,,,0.00,0,Wunderground v.1.15,2013-04-22 05:36:00,
2013-04-22 00:41:00,39.6,35.8,30.02,ENE,63,7.0,9.0,86,0.00,,,0.00,0,Wunderground v.1.15,2013-04-22 05:41:00,
2013-04-22 00:46:00,39.6,35.8,30.02,NNE,22,12.0,16.0,86,0.00,,,0.00,0,Wunderground v.1.15,2013-04-22 05:46:00,
2013-04-22 00:51:00,39.7,35.9,30.03,NE,49,12.0,13.0,86,0.00,,,0.00,0,Wunderground v.1.15,2013-04-22 05:51:00,
2013-04-22 00:56:00,39.7,35.9,30.02,NE,36,9.0,14.0,86,0.00,,,0.00,0,Wunderground v.1.15,2013-04-22 05:56:00,
2013-04-22 01:01:00,39.7,35.9,30.02,NE,48,10.0,13.0,86,0.00,,,0.00,0,Wunderground v.1.15,2013-04-22 06:01:00,
2013-04-22 01:06:00,39.7,35.9,30.03,ENE,77,14.0,16.0,86,0.00,,,0.00,0,Wunderground v.1.15,2013-04-22 06:06:00,
2013-04-22 01:11:00,39.7,35.9,30.03,NE,54,7.0,13.0,86,0.00,,,0.00,0,Wunderground v.1.15,2013-04-22 06:11:00,
2013-04-22 01:16:00,39.7,35.9,30.03,NE,49,7.0,16.0,86,0.00,,,0.00,0,Wunderground v.1.15,2013-04-22 06:16:00,
2013-04-22 01:21:00,39.7,35.9,30.02,ENE,77,8.0,9.0,86,0.00,,,0.00,0,Wunderground v.1.15,2013-04-22 06:21:00,
2013-04-22 01:25:00,39.7,35.9,30.02,ENE,67,12.0,18.0,86,0.00,,,0.00,0,Wunderground v.1.15,2013-04-22 06:25:00,
2013-04-22 01:30:00,39.5,35.7,30.02,East,83,18.0,19.0,86,0.00,,,0.00,0,Wunderground v.1.15,2013-04-22 06:30:00,
2013-04-22 01:35:00,39.4,35.9,30.01,NNE,32,13.0,20.0,87,0.00,,,0.00,0,Wunderground v.1.15,2013-04-22 06:35:00,
2013-04-22 01:40:00,39.3,35.8,30.01,ENE,57,8.0,14.0,87,0.00,,,0.00,0,Wunderground v.1.15,2013-04-22 06:40:00,
2013-04-22 01:45:00,39.3,35.8,30.02,ENE,62,7.0,17.0,87,0.00,,,0.00,0,Wunderground v.1.15,2013-04-22 06:45:00,
2013-04-22 01:50:00,39.2,35.7,30.02,East,79,14.0,20.0,87,0.00,,,0.00,0,Wunderground v.1.15,2013-04-22 06:50:00,
2013-04-22 01:55:00,39.1,35.6,30.01,NE,46,10.0,20.0,87,0.00,,,0.00,0,Wunderground v.1.15,2013-04-22 06:55:00,
2013-04-22 02:00:00,39.1,35.6,30.01,ENE,71,14.0,14.0,87,0.00,,,0.00,0,Wunderground v.1.15,2013-04-22 07:00:00,
2013-04-22 02:05:00,38.9,35.4,30.01,ENE,74,15.0,17.0,87,0.00,,,0.00,0,Wunderground v.1.15,2013-04-22 07:05:00,
2013-04-22 02:10:00,38.9,35.4,30.01,NE,34,5.0,10.0,87,0.00,,,0.00,0,Wunderground v.1.15,2013-04-22 07:10:00,
2013-04-22 02:15:00,38.9,35.4,30.01,NNE,32,10.0,16.0,87,0.00,,,0.00,0,Wunderground v.1.15,2013-04-22 07:15:00,
2013-04-22 02:20:00,38.9,35.4,30.00,NNE,33,13.0,13.0,87,0.00,,,0.00,0,Wunderground v.1.15,2013-04-22 07:20:00,
2013-04-22 02:25:00,38.9,35.4,30.00,NNE,30,11.0,16.0,87,0.00,,,0.00,0,Wunderground v.1.15,2013-04-22 07:25:00,
2013-04-22 02:30:00,38.8,35.3,29.99,ENE,69,10.0,13.0,87,0.00,,,0.00,0,Wunderground v.1.15,2013-04-22 07:30:00,
2013-04-22 02:35:00,38.8,35.3,29.99,NE,49,13.0,16.0,87,0.00,,,0.00,0,Wunderground v.1.15,2013-04-22 07:35:00,
2013-04-22 02:40:00,38.8,35.6,29.99,NE,55,10.0,12.0,88,0.00,,,0.00,0,Wunderground v.1.15,2013-04-22 07:40:00,
2013-04-22 02:45:00,38.8,35.6,29.99,NE,38,9.0,16.0,88,0.00,,,0.00,0,Wunderground v.1.15,2013-04-22 07:45:00,
2013-04-22 02:50:00,38.7,35.5,29.99,ENE,61,12.0,12.0,88,0.00,,,0.00,0,Wunderground v.1.15,2013-04-22 07:50:00,
2013-04-22 02:55:00,38.7,35.5,29.99,ENE,73,8.0,13.0,88,0.00,,,0.00,0,Wunderground v.1.15,2013-04-22 07:55:00,
2013-04-22 03:00:00,38.6,35.4,29.99,ENE,62,8.0,10.0,88,0.00,,,0.00,0,Wunderground v.1.15,2013-04-22 08:00:00,
2013-04-22 03:05:00,38.6,35.4,29.99,ENE,57,5.0,13.0,88,0.00,,,0.00,0,Wunderground v.1.15,2013-04-22 08:05:00,
2013-04-22 03:10:00,38.6,35.4,29.99,NNE,21,10.0,11.0,88,0.00,,,0.00,0,Wunderground v.1.15,2013-04-22 08:10:00,
2013-04-22 03:15:00,38.4,35.2,29.99,NE,46,10.0,13.0,88,0.00,,,0.00,0,Wunderground v.1.15,2013-04-22 08:15:00,
2013-04-22 03:20:00,38.2,35.0,29.99,NE,43,8.0,10.0,88,0.00,,,0.00,0,Wunderground v.1.15,2013-04-22 08:20:00,
2013-04-22 03:25:00,38.0,34.8,29.98,NE,55,10.0,16.0,88,0.00,,,0.00,0,Wunderground v.1.15,2013-04-22 08:25:00,
2013-04-22 03:30:00,37.9,34.7,29.98,NE,47,6.0,11.0,88,0.00,,,0.00,0,Wunderground v.1.15,2013-04-22 08:30:00,
2013-04-22 03:35:00,37.9,34.7,29.98,NE,39,10.0,14.0,88,0.00,,,0.00,0,Wunderground v.1.15,2013-04-22 08:35:00,
2013-04-22 03:40:00,37.9,34.7,29.98,ENE,61,8.0,10.0,88,0.00,,,0.00,0,Wunderground v.1.15,2013-04-22 08:40:00,
2013-04-22 03:45:00,37.8,34.6,29.98,ENE,65,8.0,15.0,88,0.00,,,0.00,0,Wunderground v.1.15,2013-04-22 08:45:00,
2013-04-22 03:50:00,37.5,34.3,29.98,NE,34,11.0,14.0,88,0.00,,,0.00,0,Wunderground v.1.15,2013-04-22 08:50:00,
2013-04-22 03:55:00,37.5,34.3,29.97,NE,51,5.0,16.0,88,0.00,,,0.00,0,Wunderground v.1.15,2013-04-22 08:55:00,
2013-04-22 04:00:00,37.5,34.3,29.98,NE,46,8.0,10.0,88,0.00,,,0.00,0,Wunderground v.1.15,2013-04-22 09:00:00,
2013-04-22 04:05:00,37.4,34.2,29.98,NE,47,8.0,14.0,88,0.00,,,0.00,0,Wunderground v.1.15,2013-04-22 09:05:00,
2013-04-22 04:10:00,37.4,34.2,29.97,NE,45,11.0,12.0,88,0.00,,,0.00,0,Wunderground v.1.15,2013-04-22 09:10:00,
2013-04-22 04:15:00,37.3,34.1,29.96,NNE,30,12.0,13.0,88,0.00,,,0.00,0,Wunderground v.1.15,2013-04-22 09:15:00,
2013-04-22 04:20:00,37.3,34.4,29.97,NE,39,10.0,14.0,89,0.00,,,0.00,0,Wunderground v.1.15,2013-04-22 09:20:00,
2013-04-22 04:25:00,37.1,34.2,29.97,NE,38,9.0,14.0,89,0.00,,,0.00,0,Wunderground v.1.15,2013-04-22 09:25:00,
2013-04-22 04:30:00,37.1,34.2,29.96,NE,53,8.0,10.0,89,0.00,,,0.00,0,Wunderground v.1.15,2013-04-22 09:30:00,
2013-04-22 04:35:00,37.1,34.2,29.96,NE,34,10.0,15.0,89,0.00,,,0.00,0,Wunderground v.1.15,2013-04-22 09:35:00,
2013-04-22 04:40:00,37.0,34.1,29.96,NE,44,12.0,12.0,89,0.00,,,0.00,0,Wunderground v.1.15,2013-04-22 09:40:00,
2013-04-22 04:45:00,37.0,34.1,29.96,NE,37,9.0,12.0,89,0.00,,,0.00,0,Wunderground v.1.15,2013-04-22 09:45:00,
2013-04-22 04:50:00,37.0,34.1,29.96,NNE,26,11.0,12.0,89,0.00,,,0.00,0,Wunderground v.1.15,2013-04-22 09:50:00,
2013-04-22 04:55:00,37.0,34.1,29.96,NNE,30,7.0,12.0,89,0.00,,,0.00,0,Wunderground v.1.15,2013-04-22 09:55:00,
2013-04-22 05:00:00,36.9,34.0,29.96,NNE,33,6.0,9.0,89,0.00,,,0.00,0,Wunderground v.1.15,2013-04-22 10:00:00,
2013-04-22 05:05:00,36.8,33.9,29.96,NNE,15,6.0,12.0,89,0.00,,,0.00,0,Wunderground v.1.15,2013-04-22 10:05:00,
2013-04-22 05:10:00,36.5,33.6,29.95,NE,42,10.0,11.0,89,0.00,,,0.00,0,Wunderground v.1.15,2013-04-22 10:10:00,
2013-04-22 05:15:00,36.3,33.4,29.95,NNE,13,8.0,15.0,89,0.00,,,0.00,0,Wunderground v.1.15,2013-04-22 10:15:00,
2013-04-22 05:20:00,36.4,33.5,29.96,North,5,7.0,8.0,89,0.00,,,0.00,0,Wunderground v.1.15,2013-04-22 10:20:00,
2013-04-22 05:25:00,36.3,33.4,29.96,North,5,11.0,14.0,89,0.00,,,0.00,0,Wunderground v.1.15,2013-04-22 10:25:00,
2013-04-22 05:30:00,36.1,32.9,29.97,NNW,346,11.0,11.0,88,0.00,,,0.00,0,Wunderground v.1.15,2013-04-22 10:30:00,
2013-04-22 05:35:00,35.9,32.7,29.96,North,355,8.0,13.0,88,0.00,,,0.00,0,Wunderground v.1.15,2013-04-22 10:35:00,
2013-04-22 05:40:00,35.7,32.5,29.95,NE,37,7.0,10.0,88,0.00,,,0.00,0,Wunderground v.1.15,2013-04-22 10:40:00,
2013-04-22 05:45:00,35.6,32.4,29.94,NNE,30,8.0,14.0,88,0.00,,,0.00,0,Wunderground v.1.15,2013-04-22 10:45:00,
2013-04-22 05:50:00,35.4,32.2,29.94,NE,34,11.0,11.0,88,0.00,,,0.00,0,Wunderground v.1.15,2013-04-22 10:50:00,
2013-04-22 05:55:00,35.3,32.1,29.94,NNE,15,10.0,15.0,88,0.00,,,0.00,0,Wunderground v.1.15,2013-04-22 10:55:00,
2013-04-22 06:00:00,35.2,32.0,29.94,NNE,22,3.0,9.0,88,0.00,,,0.00,0,Wunderground v.1.15,2013-04-22 11:00:00,
2013-04-22 06:05:00,35.2,32.3,29.94,NE,39,5.0,10.0,89,0.00,,,0.00,0,Wunderground v.1.15,2013-04-22 11:05:00,
2013-04-22 06:10:00,35.2,32.3,29.94,NE,41,6.0,7.0,89,0.00,,,0.00,0,Wunderground v.1.15,2013-04-22 11:10:00,
2013-04-22 06:15:00,35.2,32.3,29.94,NE,35,5.0,15.0,89,0.00,,,0.00,0,Wunderground v.1.15,2013-04-22 11:15:00,
2013-04-22 06:20:00,35.2,32.3,29.94,NNE,33,7.0,9.0,89,0.00,,,0.00,0,Wunderground v.1.15,2013-04-22 11:20:00,
2013-04-22 06:25:00,35.1,32.2,29.94,NNE,30,8.0,11.0,89,0.00,,,0.00,0,Wunderground v.1.15,2013-04-22 11:25:00,
2013-04-22 06:30:00,35.0,32.1,29.94,North,5,6.0,8.0,89,0.00,,,0.00,0,Wunderground v.1.15,2013-04-22 11:30:00,
2013-04-22 06:35:00,35.0,32.4,29.94,North,10,7.0,11.0,90,0.00,,,0.00,0,Wunderground v.1.15,2013-04-22 11:35:00,
2013-04-22 06:40:00,35.0,32.4,29.94,NNE,19,8.0,9.0,90,0.00,,,0.00,0,Wunderground v.1.15,2013-04-22 11:40:00,
2013-04-22 06:45:00,35.0,32.4,29.94,NNE,18,7.0,11.0,90,0.00,,,0.01,0,Wunderground v.1.15,2013-04-22 11:45:00,
2013-04-22 06:50:00,35.0,32.4,29.94,NE,45,6.0,8.0,90,0.00,,,0.01,0,Wunderground v.1.15,2013-04-22 11:50:00,
2013-04-22 06:55:00,35.1,32.5,29.94,NE,50,9.0,10.0,90,0.00,,,0.01,0,Wunderground v.1.15,2013-04-22 11:55:00,
2013-04-22 07:00:00,35.1,32.5,29.95,ENE,66,9.0,9.0,90,0.00,,,0.01,0,Wunderground v.1.15,2013-04-22 12:00:00,
2013-04-22 07:05:00,35.1,32.5,29.95,NNE,32,7.0,11.0,90,0.00,,,0.01,0,Wunderground v.1.15,2013-04-22 12:05:00,
2013-04-22 07:10:00,35.2,32.6,29.95,NNE,32,6.0,8.0,90,0.00,,,0.01,0,Wunderground v.1.15,2013-04-22 12:10:00,
2013-04-22 07:15:00,35.2,32.6,29.96,NE,48,7.0,10.0,90,0.00,,,0.01,0,Wunderground v.1.15,2013-04-22 12:15:00,
2013-04-22 07:20:00,35.2,32.6,29.96,NE,34,5.0,10.0,90,0.00,,,0.01,0,Wunderground v.1.15,2013-04-22 12:20:00,
2013-04-22 07:25:00,35.3,32.7,29.96,NNE,30,7.0,10.0,90,0.00,,,0.01,0,Wunderground v.1.15,2013-04-22 12:25:00,
2013-04-22 07:30:00,35.3,32.7,29.96,NE,47,10.0,10.0,90,0.00,,,0.01,0,Wunderground v.1.15,2013-04-22 12:30:00,
2013-04-22 07:35:00,35.4,32.8,29.96,NE,37,8.0,13.0,90,0.00,,,0.01,0,Wunderground v.1.15,2013-04-22 12:35:00,
2013-04-22 07:40:00,35.3,32.7,29.97,North,5,4.0,8.0,90,0.00,,,0.01,5,Wunderground v.1.15,2013-04-22 12:40:00,
2013-04-22 07:45:00,35.4,33.0,29.97,NNE,30,4.0,10.0,91,0.00,,,0.01,5,Wunderground v.1.15,2013-04-22 12:45:00,
2013-04-22 07:50:00,35.5,33.1,29.97,NE,40,6.0,8.0,91,0.00,,,0.01,5,Wunderground v.1.15,2013-04-22 12:50:00,
2013-04-22 07:55:00,35.5,33.1,29.97,NE,36,10.0,11.0,91,0.00,,,0.01,5,Wunderground v.1.15,2013-04-22 12:55:00,
2013-04-22 08:00:00,35.5,33.1,29.97,NE,36,12.0,15.0,91,0.00,,,0.01,7,Wunderground v.1.15,2013-04-22 13:00:00,
2013-04-22 08:05:00,35.4,33.0,29.96,NNE,26,11.0,17.0,91,0.00,,,0.01,5,Wunderground v.1.15,2013-04-22 13:05:00,
2013-04-22 08:10:00,35.5,33.1,29.96,NE,40,11.0,11.0,91,0.00,,,0.01,11,Wunderground v.1.15,2013-04-22 13:10:00,
2013-04-22 08:15:00,35.5,33.1,29.96,NE,41,17.0,17.0,91,0.00,,,0.01,18,Wunderground v.1.15,2013-04-22 13:15:00,
2013-04-22 08:20:00,35.5,33.1,29.96,NE,44,14.0,14.0,91,0.00,,,0.01,37,Wunderground v.1.15,2013-04-22 13:20:00,
2013-04-22 08:25:00,35.5,33.1,29.96,NNE,28,9.0,16.0,91,0.00,,,0.01,35,Wunderground v.1.15,2013-04-22 13:25:00,
2013-04-22 08:30:00,35.5,33.1,29.95,NNE,25,12.0,12.0,91,0.00,,,0.01,47,Wunderground v.1.15,2013-04-22 13:30:00,
2013-04-22 08:35:00,35.5,33.1,29.95,NE,49,17.0,19.0,91,0.00,,,0.01,53,Wunderground v.1.15,2013-04-22 13:35:00,
2013-04-22 08:40:00,35.4,33.0,29.96,NE,51,11.0,13.0,91,0.00,,,0.01,65,Wunderground v.1.15,2013-04-22 13:40:00,
2013-04-22 08:45:00,35.5,33.1,29.95,NNE,22,13.0,15.0,91,0.00,,,0.01,76,Wunderground v.1.15,2013-04-22 13:45:00,
2013-04-22 08:50:00,35.3,32.9,29.95,NE,53,16.0,18.0,91,0.00,,,0.01,86,Wunderground v.1.15,2013-04-22 13:50:00,
2013-04-22 08:55:00,35.2,32.8,29.96,North,351,14.0,20.0,91,0.00,,,0.01,60,Wunderground v.1.15,2013-04-22 13:55:00,
2013-04-22 09:00:00,35.1,32.7,29.96,NE,44,8.0,12.0,91,0.00,,,0.01,49,Wunderground v.1.15,2013-04-22 14:00:00,
2013-04-22 09:05:00,35.1,32.7,29.96,NNE,29,20.0,20.0,91,0.00,,,0.01,47,Wunderground v.1.15,2013-04-22 14:05:00,
2013-04-22 09:10:00,34.9,32.5,29.96,NE,39,13.0,20.0,91,0.00,,,0.01,72,Wunderground v.1.15,2013-04-22 14:10:00,
2013-04-22 09:15:00,35.0,32.6,29.96,NNE,27,17.0,18.0,91,0.00,,,0.01,62,Wunderground v.1.15,2013-04-22 14:15:00,
2013-04-22 09:20:00,34.8,32.4,29.96,NNE,20,15.0,23.0,91,0.00,,,0.01,69,Wunderground v.1.15,2013-04-22 14:20:00,
2013-04-22 09:25:00,34.8,32.4,29.96,NE,42,14.0,20.0,91,0.00,,,0.01,62,Wunderground v.1.15,2013-04-22 14:25:00,
2013-04-22 09:30:00,34.7,32.3,29.96,North,10,9.0,21.0,91,0.00,,,0.01,30,Wunderground v.1.15,2013-04-22 14:30:00,
2013-04-22 09:35:00,34.6,32.2,29.96,NE,48,11.0,17.0,91,0.00,,,0.01,46,Wunderground v.1.15,2013-04-22 14:35:00,
2013-04-22 09:40:00,34.6,32.2,29.96,NNE,29,11.0,17.0,91,0.00,,,0.01,47,Wunderground v.1.15,2013-04-22 14:40:00,
2013-04-22 09:45:00,34.5,32.1,29.97,North,5,10.0,22.0,91,0.00,,,0.01,58,Wunderground v.1.15,2013-04-22 14:45:00,
2013-04-22 09:50:00,34.3,31.9,29.98,North,349,10.0,22.0,91,0.00,,,0.02,30,Wunderground v.1.15,2013-04-22 14:50:00,
2013-04-22 09:55:00,34.0,31.6,29.97,NE,41,13.0,17.0,91,0.00,,,0.02,26,Wunderground v.1.15,2013-04-22 14:55:00,
2013-04-22 10:00:00,33.8,31.5,29.96,NE,36,14.0,22.0,91,0.00,,,0.02,54,Wunderground v.1.15,2013-04-22 15:00:00,
2013-04-22 10:05:00,33.6,31.3,29.96,North,5,10.0,20.0,91,0.00,,,0.02,54,Wunderground v.1.15,2013-04-22 15:05:00,
2013-04-22 10:10:00,33.4,31.1,29.97,NE,39,6.0,24.0,91,0.00,,,0.02,42,Wunderground v.1.15,2013-04-22 15:10:00,
2013-04-22 10:14:00,33.3,31.0,29.97,NE,47,11.0,23.0,91,0.00,,,0.02,70,Wunderground v.1.15,2013-04-22 15:14:00,
2013-04-22 10:19:00,33.2,30.9,29.97,NNE,27,13.0,23.0,91,0.00,,,0.02,65,Wunderground v.1.15,2013-04-22 15:19:00,
2013-04-22 10:24:00,33.2,30.9,29.98,NE,38,11.0,21.0,91,0.00,,,0.02,47,Wunderground v.1.15,2013-04-22 15:24:00,
2013-04-22 10:29:00,32.9,30.6,29.98,North,10,13.0,24.0,91,0.00,,,0.02,51,Wunderground v.1.15,2013-04-22 15:29:00,
2013-04-22 10:34:00,32.4,30.1,29.98,NNE,13,8.0,23.0,91,0.00,,,0.02,63,Wunderground v.1.15,2013-04-22 15:34:00,
2013-04-22 10:39:00,32.3,30.0,29.98,NNW,343,6.0,23.0,91,0.00,,,0.02,63,Wunderground v.1.15,2013-04-22 15:39:00,
2013-04-22 10:44:00,32.3,30.0,29.98,North,5,8.0,20.0,91,0.00,,,0.02,42,Wunderground v.1.15,2013-04-22 15:44:00,
2013-04-22 10:49:00,32.0,29.7,29.98,NNE,13,13.0,23.0,91,0.00,,,0.02,40,Wunderground v.1.15,2013-04-22 15:49:00,
2013-04-22 10:54:00,31.8,29.5,29.98,North,5,14.0,23.0,91,0.00,,,0.02,33,Wunderground v.1.15,2013-04-22 15:54:00,
2013-04-22 10:59:00,31.6,29.3,29.99,NNE,14,22.0,26.0,91,0.00,,,0.02,33,Wunderground v.1.15,2013-04-22 15:59:00,
2013-04-22 11:04:00,31.5,29.2,29.99,North,350,9.0,19.0,91,0.00,,,0.02,35,Wunderground v.1.15,2013-04-22 16:04:00,
2013-04-22 11:09:00,31.4,29.1,29.99,NNE,17,14.0,20.0,91,0.00,,,0.02,19,Wunderground v.1.15,2013-04-22 16:09:00,
2013-04-22 11:14:00,31.4,29.1,30.00,NNE,16,10.0,24.0,91,0.00,,,0.02,33,Wunderground v.1.15,2013-04-22 16:14:00,
2013-04-22 11:19:00,31.2,28.9,29.99,North,5,13.0,24.0,91,0.00,,,0.02,28,Wunderground v.1.15,2013-04-22 16:19:00,
2013-04-22 11:24:00,31.0,28.7,29.99,NNW,338,22.0,25.0,91,0.00,,,0.02,33,Wunderground v.1.15,2013-04-22 16:24:00,
2013-04-22 11:29:00,31.0,28.7,29.99,NNE,17,15.0,25.0,91,0.00,,,0.02,28,Wunderground v.1.15,2013-04-22 16:29:00,
2013-04-22 11:34:00,31.0,28.7,29.99,NNE,20,16.0,22.0,91,0.00,,,0.02,28,Wunderground v.1.15,2013-04-22 16:34:00,
2013-04-22 11:39:00,30.8,28.5,29.99,NNE,18,12.0,24.0,91,0.00,,,0.02,23,Wunderground v.1.15,2013-04-22 16:39:00,
2013-04-22 11:44:00,30.8,28.5,30.00,NNW,344,11.0,17.0,91,0.00,,,0.02,16,Wunderground v.1.15,2013-04-22 16:44:00,
2013-04-22 11:49:00,30.7,28.4,30.00,NE,34,15.0,20.0,91,0.00,,,0.02,16,Wunderground v.1.15,2013-04-22 16:49:00,
2013-04-22 11:54:00,30.5,28.2,30.00,NNE,22,18.0,24.0,91,0.00,,,0.02,19,Wunderground v.1.15,2013-04-22 16:54:00,
2013-04-22 11:59:00,30.3,28.0,30.00,North,10,18.0,24.0,91,0.00,,,0.02,23,Wunderground v.1.15,2013-04-22 16:59:00,
2013-04-22 12:04:00,30.2,27.9,30.01,North,355,11.0,16.0,91,0.00,,,0.02,28,Wunderground v.1.15,2013-04-22 17:04:00,
2013-04-22 12:09:00,30.2,27.9,30.01,NNE,17,8.0,17.0,91,0.00,,,0.02,18,Wunderground v.1.15,2013-04-22 17:09:00,
2013-04-22 12:14:00,30.1,27.8,30.00,North,5,11.0,24.0,91,0.00,,,0.02,25,Wunderground v.1.15,2013-04-22 17:14:00,
2013-04-22 12:19:00,29.8,27.5,30.00,North,5,17.0,24.0,91,0.00,,,0.02,35,Wunderground v.1.15,2013-04-22 17:19:00,
2013-04-22 12:24:00,29.6,27.3,30.01,NNE,26,16.0,27.0,91,0.00,,,0.02,40,Wunderground v.1.15,2013-04-22 17:24:00,
2013-04-22 12:29:00,29.5,27.2,30.02,NNE,20,12.0,27.0,91,0.00,,,0.02,49,Wunderground v.1.15,2013-04-22 17:29:00,
2013-04-22 12:34:00,29.5,27.2,30.03,NNE,13,14.0,22.0,91,0.00,,,0.02,53,Wunderground v.1.15,2013-04-22 17:34:00,
2013-04-22 12:39:00,29.4,27.1,30.03,NNE,21,8.0,22.0,91,0.00,,,0.02,60,Wunderground v.1.15,2013-04-22 17:39:00,
2013-04-22 12:44:00,29.5,27.2,30.03,North,5,13.0,18.0,91,0.00,,,0.02,70,Wunderground v.1.15,2013-04-22 17:44:00,
2013-04-22 12:49:00,29.5,27.2,30.02,North,9,14.0,18.0,91,0.00,,,0.02,81,Wunderground v.1.15,2013-04-22 17:49:00,
2013-04-22 12:54:00,29.5,27.5,30.02,North,5,9.0,20.0,92,0.00,,,0.02,91,Wunderground v.1.15,2013-04-22 17:54:00,
2013-04-22 12:59:00,29.5,27.5,30.02,NNE,14,14.0,20.0,92,0.00,,,0.02,98,Wunderground v.1.15,2013-04-22 17:59:00,
2013-04-22 13:04:00,29.3,27.0,30.02,NNE,17,13.0,19.0,91,0.00,,,0.02,98,Wunderground v.1.15,2013-04-22 18:04:00,
2013-04-22 13:09:00,29.2,26.9,30.02,NNE,28,13.0,19.0,91,0.00,,,0.02,98,Wunderground v.1.15,2013-04-22 18:09:00,
2013-04-22 13:14:00,29.2,26.9,30.02,NNE,26,15.0,17.0,91,0.00,,,0.02,105,Wunderground v.1.15,2013-04-22 18:14:00,
2013-04-22 13:19:00,29.2,27.2,30.02,North,5,12.0,17.0,92,0.00,,,0.02,121,Wunderground v.1.15,2013-04-22 18:19:00,
2013-04-22 13:24:00,29.2,27.2,30.02,NNW,343,14.0,19.0,92,0.00,,,0.02,125,Wunderground v.1.15,2013-04-22 18:24:00,
2013-04-22 13:29:00,29.2,27.2,30.02,North,5,14.0,20.0,92,0.00,,,0.02,132,Wunderground v.1.15,2013-04-22 18:29:00,
2013-04-22 13:34:00,29.3,27.3,30.03,NNE,12,16.0,19.0,92,0.00,,,0.02,144,Wunderground v.1.15,2013-04-22 18:34:00,
2013-04-22 13:39:00,29.4,27.4,30.03,NNE,17,6.0,19.0,92,0.00,,,0.02,151,Wunderground v.1.15,2013-04-22 18:39:00,
2013-04-22 13:44:00,29.4,27.4,30.03,NNE,13,15.0,18.0,92,0.00,,,0.02,158,Wunderground v.1.15,2013-04-22 18:44:00,
2013-04-22 14:08:00,29.3,27.3,30.03,North,5,9.0,9.0,92,0.00,,,0.02,250,Wunderground v.1.15,2013-04-22 19:08:00,
2013-04-22 14:13:00,29.3,27.3,30.04,North,355,9.0,16.0,92,0.00,,,0.02,265,Wunderground v.1.15,2013-04-22 19:13:00,
2013-04-22 14:18:00,29.2,27.2,30.04,NNW,339,8.0,20.0,92,0.00,,,0.02,301,Wunderground v.1.15,2013-04-22 19:18:00,
2013-04-22 14:23:00,29.2,27.2,30.05,North,360,6.0,17.0,92,0.00,,,0.02,339,Wunderground v.1.15,2013-04-22 19:23:00,
2013-04-22 14:28:00,29.3,27.3,30.05,NNW,338,15.0,23.0,92,0.00,,,0.02,399,Wunderground v.1.15,2013-04-22 19:28:00,
2013-04-22 14:33:00,29.3,27.3,30.05,NW,325,17.0,22.0,92,0.00,,,0.02,417,Wunderground v.1.15,2013-04-22 19:33:00,
2013-04-22 14:38:00,29.4,27.4,30.05,NNW,348,14.0,22.0,92,0.00,,,0.02,410,Wunderground v.1.15,2013-04-22 19:38:00,
2013-04-22 14:44:00,29.5,27.5,30.05,North,5,17.0,21.0,92,0.00,,,0.02,387,Wunderground v.1.15,2013-04-22 19:44:00,
2013-04-22 14:48:00,29.4,27.4,30.05,NNE,16,12.0,21.0,92,0.00,,,0.02,381,Wunderground v.1.15,2013-04-22 19:48:00,
2013-04-22 14:53:00,29.4,27.4,30.06,NNE,12,10.0,18.0,92,0.00,,,0.02,404,Wunderground v.1.15,2013-04-22 19:53:00,
2013-04-22 14:58:00,29.5,27.5,30.06,North,355,13.0,18.0,92,0.00,,,0.02,420,Wunderground v.1.15,2013-04-22 19:58:00,
2013-04-22 15:03:00,29.6,27.6,30.06,North,11,7.0,22.0,92,0.00,,,0.02,448,Wunderground v.1.15,2013-04-22 20:03:00,
2013-04-22 15:09:00,29.8,27.8,30.06,North,360,6.0,22.0,92,0.00,,,0.02,508,Wunderground v.1.15,2013-04-22 20:09:00,
2013-04-22 15:14:00,29.9,27.9,30.07,North,360,11.0,20.0,92,0.00,,,0.02,561,Wunderground v.1.15,2013-04-22 20:14:00,
2013-04-22 15:19:00,30.1,28.1,30.07,NNE,12,12.0,20.0,92,0.00,,,0.02,587,Wunderground v.1.15,2013-04-22 20:19:00,
2013-04-22 15:24:00,30.2,28.2,30.07,North,355,15.0,21.0,92,0.00,,,0.02,575,Wunderground v.1.15,2013-04-22 20:24:00,
2013-04-22 15:29:00,30.3,28.3,30.07,North,355,13.0,21.0,92,0.00,,,0.02,610,Wunderground v.1.15,2013-04-22 20:29:00,
2013-04-22 15:34:00,30.5,28.5,30.07,North,5,8.0,19.0,92,0.00,,,0.02,554,Wunderground v.1.15,2013-04-22 20:34:00,
2013-04-22 15:39:00,30.5,28.5,30.07,NNE,31,20.0,20.0,92,0.00,,,0.02,524,Wunderground v.1.15,2013-04-22 20:39:00,
2013-04-22 15:44:00,30.6,28.6,30.07,NNW,336,17.0,20.0,92,0.00,,,0.03,439,Wunderground v.1.15,2013-04-22 20:44:00,
2013-04-22 15:49:00,30.5,28.5,30.08,NNE,24,6.0,23.0,92,0.00,,,0.03,343,Wunderground v.1.15,2013-04-22 20:49:00,
2013-04-22 15:54:00,30.5,28.5,30.08,North,355,15.0,21.0,92,0.00,,,0.03,336,Wunderground v.1.15,2013-04-22 20:54:00,
2013-04-22 15:59:00,30.5,28.5,30.08,North,355,13.0,21.0,92,0.00,,,0.03,320,Wunderground v.1.15,2013-04-22 20:59:00,
2013-04-22 16:04:00,30.5,28.5,30.08,North,10,9.0,23.0,92,0.00,,,0.03,359,Wunderground v.1.15,2013-04-22 21:04:00,
2013-04-22 16:09:00,30.6,28.6,30.08,North,5,8.0,23.0,92,0.00,,,0.03,380,Wunderground v.1.15,2013-04-22 21:09:00,
2013-04-22 16:14:00,30.6,28.6,30.08,NNE,12,11.0,19.0,92,0.00,,,0.03,320,Wunderground v.1.15,2013-04-22 21:14:00,
2013-04-22 16:19:00,30.6,28.6,30.09,NE,36,16.0,22.0,92,0.00,,,0.04,279,Wunderground v.1.15,2013-04-22 21:19:00,
2013-04-22 16:24:00,30.6,28.6,30.09,NNW,342,17.0,22.0,92,0.00,,,0.04,294,Wunderground v.1.15,2013-04-22 21:24:00,
2013-04-22 16:29:00,30.6,28.6,30.10,North,5,21.0,26.0,92,0.00,,,0.04,359,Wunderground v.1.15,2013-04-22 21:29:00,
2013-04-22 16:34:00,30.5,28.5,30.10,North,360,14.0,27.0,92,0.00,,,0.04,318,Wunderground v.1.15,2013-04-22 21:34:00,
2013-04-22 16:39:00,30.7,28.7,30.10,North,355,14.0,27.0,92,0.00,,,0.04,244,Wunderground v.1.15,2013-04-22 21:39:00,
2013-04-22 16:44:00,30.5,28.5,30.10,North,350,21.0,23.0,92,0.00,,,0.04,237,Wunderground v.1.15,2013-04-22 21:44:00,
2013-04-22 16:49:00,30.3,28.3,30.09,North,5,13.0,24.0,92,0.00,,,0.04,267,Wunderground v.1.15,2013-04-22 21:49:00,
2013-04-22 16:54:00,30.3,28.3,30.09,NNW,339,11.0,20.0,92,0.00,,,0.05,267,Wunderground v.1.15,2013-04-22 21:54:00,
2013-04-22 16:59:00,30.2,28.2,30.08,NNE,13,12.0,27.0,92,0.00,,,0.05,264,Wunderground v.1.15,2013-04-22 21:59:00,
2013-04-22 17:04:00,29.9,27.9,30.09,North,355,13.0,29.0,92,0.00,,,0.05,232,Wunderground v.1.15,2013-04-22 22:04:00,
2013-04-22 17:09:00,29.9,27.9,30.09,NNW,336,12.0,29.0,92,0.00,,,0.05,207,Wunderground v.1.15,2013-04-22 22:09:00,
2013-04-22 17:14:00,29.7,27.7,30.10,North,5,15.0,23.0,92,0.00,,,0.05,146,Wunderground v.1.15,2013-04-22 22:14:00,
2013-04-22 17:19:00,29.8,27.8,30.11,NNE,14,19.0,23.0,92,0.00,,,0.05,167,Wunderground v.1.15,2013-04-22 22:19:00,
2013-04-22 17:24:00,29.7,27.7,30.12,North,355,14.0,21.0,92,0.00,,,0.05,185,Wunderground v.1.15,2013-04-22 22:24:00,
2013-04-22 17:29:00,29.7,27.7,30.12,North,355,5.0,21.0,92,0.00,,,0.05,185,Wunderground v.1.15,2013-04-22 22:29:00,
2013-04-22 17:34:00,29.8,27.8,30.12,NNW,340,19.0,19.0,92,0.00,,,0.06,197,Wunderground v.1.15,2013-04-22 22:34:00,
2013-04-22 17:39:00,29.8,27.8,30.13,NNW,329,19.0,24.0,92,0.00,,,0.06,251,Wunderground v.1.15,2013-04-22 22:39:00,
2013-04-22 17:44:00,29.8,27.8,30.13,North,5,12.0,20.0,92,0.00,,,0.06,197,Wunderground v.1.15,2013-04-22 22:44:00,
2013-04-22 17:49:00,29.8,27.8,30.14,North,349,10.0,22.0,92,0.04,,,0.07,151,Wunderground v.1.15,2013-04-22 22:49:00,
2013-04-22 17:54:00,29.9,27.9,30.14,North,355,14.0,24.0,92,0.04,,,0.07,135,Wunderground v.1.15,2013-04-22 22:54:00,
2013-04-22 17:59:00,29.9,27.9,30.13,NW,325,13.0,24.0,92,0.04,,,0.07,134,Wunderground v.1.15,2013-04-22 22:59:00,
2013-04-22 18:04:00,29.9,27.9,30.14,NNW,336,11.0,24.0,92,0.04,,,0.08,134,Wunderground v.1.15,2013-04-22 23:04:00,
2013-04-22 18:09:00,29.9,27.9,30.13,NNE,24,18.0,24.0,92,0.04,,,0.08,132,Wunderground v.1.15,2013-04-22 23:09:00,
2013-04-22 18:14:00,30.0,28.0,30.13,NNW,348,17.0,27.0,92,0.08,,,0.09,134,Wunderground v.1.15,2013-04-22 23:14:00,
2013-04-22 18:19:00,30.1,28.1,30.14,NNW,346,17.0,27.0,92,0.08,,,0.09,120,Wunderground v.1.15,2013-04-22 23:19:00,
2013-04-22 18:24:00,30.1,28.1,30.14,NNW,348,15.0,28.0,92,0.06,,,0.10,125,Wunderground v.1.15,2013-04-22 23:24:00,
2013-04-22 18:29:00,30.1,28.1,30.14,North,5,19.0,29.0,92,0.06,,,0.10,102,Wunderground v.1.15,2013-04-22 23:29:00,
2013-04-22 18:34:00,30.1,28.1,30.14,NNW,336,18.0,24.0,92,0.05,,,0.10,109,Wunderground v.1.15,2013-04-22 23:34:00,
2013-04-22 18:39:00,30.1,28.1,30.15,NNW,344,13.0,24.0,92,0.00,,,0.10,127,Wunderground v.1.15,2013-04-22 23:39:00,
2013-04-22 18:44:00,30.2,28.2,30.17,NNW,342,17.0,21.0,92,0.00,,,0.10,86,Wunderground v.1.15,2013-04-22 23:44:00,
2013-04-22 18:49:00,30.1,28.1,30.17,North,355,11.0,23.0,92,0.00,,,0.10,60,Wunderground v.1.15,2013-04-22 23:49:00,
2013-04-22 18:54:00,30.1,28.1,30.17,North,355,14.0,21.0,92,0.00,,,0.10,74,Wunderground v.1.15,2013-04-22 23:54:00,
2013-04-22 18:59:00,30.1,28.1,30.16,North,11,11.0,24.0,92,0.00,,,0.10,98,Wunderground v.1.15,2013-04-22 23:59:00,
2013-04-22 19:04:00,30.1,28.1,30.17,NNW,347,15.0,19.0,92,0.00,,,0.10,67,Wunderground v.1.15,2013-04-23 00:04:00,
2013-04-22 19:09:00,29.9,27.9,30.16,NNE,26,12.0,23.0,92,0.00,,,0.10,54,Wunderground v.1.15,2013-04-23 00:09:00,
2013-04-22 19:14:00,29.8,27.8,30.17,North,5,12.0,19.0,92,0.00,,,0.10,46,Wunderground v.1.15,2013-04-23 00:14:00,
2013-04-22 19:19:00,29.8,27.8,30.17,NNW,331,8.0,22.0,92,0.00,,,0.10,40,Wunderground v.1.15,2013-04-23 00:19:00,
2013-04-22 19:24:00,29.8,27.8,30.17,North,360,8.0,17.0,92,0.00,,,0.10,42,Wunderground v.1.15,2013-04-23 00:24:00,
2013-04-22 19:29:00,29.8,27.8,30.16,NNW,348,21.0,21.0,92,0.00,,,0.11,39,Wunderground v.1.15,2013-04-23 00:29:00,
2013-04-22 19:34:00,29.8,27.8,30.16,North,360,13.0,24.0,92,0.00,,,0.11,35,Wunderground v.1.15,2013-04-23 00:34:00,
2013-04-22 19:39:00,29.8,27.8,30.16,NNW,342,16.0,24.0,92,0.00,,,0.11,33,Wunderground v.1.15,2013-04-23 00:39:00,
2013-04-22 19:44:00,29.8,27.8,30.16,North,360,13.0,20.0,92,0.00,,,0.11,23,Wunderground v.1.15,2013-04-23 00:44:00,
2013-04-22 19:49:00,29.7,27.7,30.16,North,5,18.0,25.0,92,0.00,,,0.11,19,Wunderground v.1.15,2013-04-23 00:49:00,
2013-04-22 19:55:00,29.7,27.7,30.16,North,360,15.0,26.0,92,0.00,,,0.11,14,Wunderground v.1.15,2013-04-23 00:55:00,
2013-04-22 20:00:00,29.6,27.6,30.17,North,5,13.0,26.0,92,0.00,,,0.11,11,Wunderground v.1.15,2013-04-23 01:00:00,
2013-04-22 20:05:00,29.5,27.5,30.18,NNE,15,7.0,27.0,92,0.00,,,0.11,9,Wunderground v.1.15,2013-04-23 01:05:00,
2013-04-22 20:09:00,29.4,27.4,30.19,North,355,13.0,27.0,92,0.00,,,0.11,7,Wunderground v.1.15,2013-04-23 01:09:00,
2013-04-22 20:15:00,29.3,27.3,30.19,North,5,16.0,20.0,92,0.00,,,0.11,0,Wunderground v.1.15,2013-04-23 01:15:00,
2013-04-22 20:19:00,29.3,27.3,30.20,NNE,32,12.0,22.0,92,0.00,,,0.11,0,Wunderground v.1.15,2013-04-23 01:19:00,
2013-04-22 20:24:00,29.3,27.3,30.20,North,5,15.0,21.0,92,0.00,,,0.11,0,Wunderground v.1.15,2013-04-23 01:24:00,
2013-04-22 20:29:00,29.3,27.3,30.20,North,360,17.0,26.0,92,0.00,,,0.11,0,Wunderground v.1.15,2013-04-23 01:29:00,
2013-04-22 20:34:00,29.3,27.3,30.20,NNE,13,18.0,23.0,92,0.00,,,0.11,0,Wunderground v.1.15,2013-04-23 01:34:00,
2013-04-22 20:39:00,29.2,27.2,30.20,North,360,9.0,23.0,92,0.00,,,0.11,0,Wunderground v.1.15,2013-04-23 01:39:00,
2013-04-22 20:44:00,29.2,27.2,30.20,NNW,346,11.0,24.0,92,0.00,,,0.11,0,Wunderground v.1.15,2013-04-23 01:44:00,
2013-04-22 20:49:00,29.1,27.1,30.20,North,11,10.0,24.0,92,0.00,,,0.11,0,Wunderground v.1.15,2013-04-23 01:49:00,
2013-04-22 20:54:00,29.0,27.0,30.20,North,355,18.0,26.0,92,0.00,,,0.11,0,Wunderground v.1.15,2013-04-23 01:54:00,
2013-04-22 20:59:00,28.9,26.9,30.21,North,9,12.0,26.0,92,0.00,,,0.11,0,Wunderground v.1.15,2013-04-23 01:59:00,